Location: BAF
(53.9483°N, 27.7497°E)
Time: 23:45:23
(UTC+02:00)

ISS - Pass Details

Date: 28 November 2020
Orbit: 418 x 419 km, 51.6° (Epoch: 16 January)

Event Time Altitude Azimuth Distance (km) Brightness Sun altitude
Rises 19:05:35 0° 270° (W) 2,367 1.4 -27.2°
Reaches altitude 10° 19:07:43 10° 266° (W) 1,502 0.0 -27.5°
Enters shadow 19:09:02 21° 259° (WSW) 991 -1.2 -27.7°
